Location: Barcelona
(41.3830°N, 2.1830°E)
Time: 11:17:49
(UTC+02:00)

ISS - Pass Details

Date: 29 May 2020
Orbit: 417 x 419 km, 51.6° (Epoch: 31 May)

Event Time Altitude Azimuth Distance (km) Brightness Sun altitude
Rises 22:21:09 0° 309° (NW) 2,366 2.4 -10.6°
Reaches altitude 10° 22:23:29 10° 323° (NW) 1,501 0.5 -10.9°
Maximum altitude 22:26:23 26° 22° (NNE) 867 -1.9 -11.3°
Drops below altitude 10° 22:29:16 10° 82° (E) 1,498 -1.3 -11.7°
Enters shadow 22:29:28 - 83° (E) 1,568 -1.2 -11.8°
